Hourly Data Report for October 20, 2015

All times are specified in Local Standard Time (LST). Add 1 hour to adjust for Daylight Saving Time where and when it is observed.

SAINT JOHN A
NEW BRUNSWICK

45°18'58.000" N
65°53'24.000" W
108.80 m
8104901
71609
YSJ

Download Data

Hourly Data (October 2015)
Hourly Data Report for October 20, 2015
Temp Definition
°C
Dew Point Temp Definition
°C
Rel Hum Definition
%
Wind Dir Definition
10's deg

Wind Spd Definition
km/h
Visibility Definition
km
Stn Press Definition
kPa
Hmdx Definition


Wind Chill Definition


Weather Definition


TIME
00:00 Legend Double Dagger 3.7 -5.5 51 24 12 24.1 100.66     LegendNANA
01:00 Legend Double Dagger 4.3 -3.7 56 22 14 24.1 100.59     LegendNANA
02:00 Legend Double Dagger 4.6 -1.8 63 23 9 24.1 100.52     Cloudy
03:00 Legend Double Dagger 6.2 0.1 65 24 11 24.1 100.41     LegendNANA
04:00 Legend Double Dagger 6.5 -0.2 62 24 19 24.1 100.34     LegendNANA
05:00 Legend Double Dagger 7.2 2.1 70 24 13 24.1 100.29     Cloudy
06:00 Legend Double Dagger 8.0 3.3 72 24 25 24.1 100.26     LegendNANA
07:00 Legend Double Dagger 8.6 4.3 74 23 21 24.1 100.24     LegendNANA
08:00 Legend Double Dagger 8.9 5.1 77 23 25 24.1 100.22     Cloudy
09:00 Legend Double Dagger 9.4 5.6 77 22 30 24.1 100.17     LegendNANA
10:00 Legend Double Dagger 9.4 5.2 75 23 23 24.1 100.15     LegendNANA
11:00 Legend Double Dagger 10.3 6.3 76 24 21 24.1 100.14     Cloudy
12:00 Legend Double Dagger 10.3 7.4 82 21 28 24.1 100.07     LegendNANA
13:00 Legend Double Dagger 10.8 7.7 81 23 26 24.1 100.01     LegendNANA
14:00 Legend Double Dagger 11.1 7.4 78 22 35 24.1 99.97     Cloudy
15:00 Legend Double Dagger 10.9 7.6 80 22 28 24.1 99.91     LegendNANA
16:00 Legend Double Dagger 11.2 7.9 80 23 24 24.1 99.94     LegendNANA
17:00 Legend Double Dagger 10.4 8.2 86 22 20 24.1 99.99     Mostly Cloudy
18:00 Legend Double Dagger 10.0 8.5 90 23 19 24.1 100.05     LegendNANA
19:00 Legend Double Dagger 9.8 8.6 92 23 13 24.1 100.12     LegendNANA
20:00 Legend Double Dagger 10.3 8.6 89 24 11 24.1 100.17     Cloudy
21:00 Legend Double Dagger 10.6 7.9 83 28 12 24.1 100.28     LegendNANA
22:00 Legend Double Dagger 10.2 7.6 84 27 9 24.1 100.37     LegendNANA
23:00 Legend Double Dagger 10.3 4.7 68 31 18 24.1 100.46     Cloudy

Notes on Data Quality.

Legend

  • E = Estimated
  • M = Missing
  • NA = Not Available
  • ‡ = Partner data that is not subject to review by the National Climate Archives
Date modified: